Location: Unspecified
(0.0000°N, 0.0000°E)
Time: 22:09:46
(UTC+00:00)

Transit 4A - Visible Passes

Search period start: 18 May 2024 00:00
Search period end: 28 May 2024 00:00
Orbit: 871 x 971 km, 66.8° (Epoch: 17 May)

Date Brightness Start Highest point End Pass type
(mag) Time Alt. Az. Time Alt. Az. Time Alt. Az.
18 May 7.8 04:56:36 10° SSW 05:02:45 76° WNW 05:08:41 10° NNE visible
19 May 10.3 03:22:23 10° SE 03:25:35 15° ESE 03:28:52 10° ENE visible
19 May 8.3 05:05:58 10° SW 05:11:43 44° WNW 05:17:20 10° N visible
20 May 9.6 03:32:21 21° SE 03:34:38 26° ESE 03:39:31 10° NE visible
20 May 8.9 05:15:55 11° SW 05:20:41 26° WNW 05:25:31 10° NNW visible
21 May 8.7 03:42:14 38° SE 03:43:39 44° ESE 03:49:18 10° NE visible
21 May 9.5 05:26:29 10° WSW 05:29:40 15° WNW 05:32:49 10° NW visible
22 May 7.9 03:52:01 69° SSE 03:52:39 76° ESE 03:58:36 10° NNE visible
23 May 7.8 04:01:44 64° WNW 04:01:44 64° WNW 04:07:30 10° N visible
24 May 10.6 02:27:48 12° ENE 02:27:48 12° ENE 02:28:23 10° ENE visible
24 May 8.6 04:11:21 36° NW 04:11:21 36° NW 04:16:01 10° N visible
25 May 10.3 02:37:20 16° ENE 02:37:20 16° ENE 02:38:41 10° NE visible
25 May 9.3 04:20:52 20° NW 04:20:52 20° NW 04:24:00 10° NNW visible
26 May 10.1 02:46:48 18° NE 02:46:48 18° NE 02:48:18 10° NE visible
26 May 9.9 04:30:19 11° NW 04:30:19 11° NW 04:30:43 10° NW visible
27 May 10.1 02:56:10 17° NNE 02:56:10 17° NNE 02:57:28 10° NNE visible
